カタログに戻る

COSMOS 1818 COOLANT

LostLEO
NORAD 50788·DEBRIS·🇷🇺 Russia

打ち上げ Feb 1, 1987 から Baikonur Cosmodrome

Loading…

次のパス (今後24時間)

TLE

古いSource: Space-Track

元期: Sep 13, 2022, 04:21 UTC

1 50788U 87011BD  22256.18139772  .00000450  00000-0  19539-3 0  9999
2 50788  65.0080  98.7194 0014061 250.7277 109.2288 14.34310783642948

AllMySatでCOSMOS 1818 COOLANTをリアルタイム追跡

Download on the App Store